| time (UTC) | temp C | wind direction | speed KPH | gust KPH | rain 1hr cm | rain 24hr cm | rain mn cm | humidity % | barometer mb |
| 20260502214656 | -17 | 45 | 0.0 | 0.0 | 0.00 | 0.00 | 0.00 | 1020.7 | |
| 20260502213856 | -17 | 45 | 0.0 | 0.0 | 0.00 | 0.00 | 0.00 | 1020.7 | |
| 20260502213056 | -17 | 45 | 0.0 | 0.0 | 0.00 | 0.00 | 0.00 | 1020.7 | |
| 20260502212254 | -17 | 45 | 0.0 | 0.0 | 0.00 | 0.00 | 0.00 | 1020.6 | |
| 20260502211455 | -17 | 45 | 0.0 | 0.0 | 0.00 | 0.00 | 0.00 | 1020.6 | |
| 20260502205853 | -17 | 45 | 0.0 | 0.0 | 0.00 | 0.00 | 0.00 | 1020.6 | |
| 20260502205054 | -17 | 45 | 0.0 | 0.0 | 0.00 | 0.00 | 0.00 | 1020.7 | |
| 20260502204253 | -17 | 45 | 0.0 | 0.0 | 0.00 | 0.00 | 0.00 | 1020.6 | |
| 20260502203448 | -17 | 45 | 0.0 | 0.0 | 0.00 | 0.00 | 0.00 | 1020.6 | |
| 20260502202647 | -17 | 45 | 0.0 | 0.0 | 0.00 | 0.00 | 0.00 | 1020.6 | |
| 20260502201841 | -17 | 45 | 0.0 | 0.0 | 0.00 | 0.00 | 0.00 | 1020.6 | |
| 20260502201041 | -17 | 45 | 0.0 | 0.0 | 0.00 | 0.00 | 0.00 | 1020.5 | |
| 20260502200240 | -17 | 45 | 0.0 | 0.0 | 0.00 | 0.00 | 0.00 | 1020.5 | |
| 20260502195437 | -17 | 45 | 0.0 | 0.0 | 0.00 | 0.00 | 0.00 | 1020.5 | |
| 20260502194632 | -17 | 45 | 0.0 | 0.0 | 0.00 | 0.00 | 0.00 | 1020.4 | |
| 20260502193832 | -17 | 45 | 0.0 | 0.0 | 0.00 | 0.00 | 0.00 | 1020.4 | |
| 20260502193027 | -17 | 45 | 0.0 | 0.0 | 0.00 | 0.00 | 0.00 | 1020.4 | |
| 20260502192223 | -17 | 45 | 0.0 | 0.0 | 0.00 | 0.00 | 0.00 | 1020.2 | |
| 20260502191419 | -17 | 45 | 0.0 | 0.0 | 0.00 | 0.00 | 0.00 | 1020.0 | |
| 20260502190616 | -17 | 45 | 0.0 | 0.0 | 0.00 | 0.00 | 0.00 | 1019.9 | |
| 20260502185813 | -17 | 45 | 0.0 | 0.0 | 0.00 | 0.00 | 0.00 | 1019.8 | |
| 20260502185012 | -17 | 45 | 0.0 | 0.0 | 0.00 | 0.00 | 0.00 | 1019.6 | |
| 20260502184210 | -17 | 45 | 0.0 | 0.0 | 0.00 | 0.00 | 0.00 | 1019.3 | |
| 20260502183406 | -17 | 45 | 0.0 | 0.0 | 0.00 | 0.00 | 0.00 | 1019.0 | |
| 20260502182607 | -17 | 135 | 0.0 | 0.0 | 0.00 | 0.00 | 0.00 | 1018.8 | |
| 20260502181806 | -17 | 135 | 0.0 | 0.0 | 0.00 | 0.00 | 0.00 | 1018.5 | |
| 20260502181006 | -17 | 135 | 0.0 | 0.0 | 0.00 | 0.00 | 0.00 | 1018.2 | |
| 20260502180207 | -17 | 135 | 0.0 | 0.0 | 0.00 | 0.00 | 0.00 | 1017.9 | |
| 20260502164149 | -17 | 45 | 0.0 | 0.0 | 0.00 | 0.00 | 0.00 | 1017.1 | |
| 20260502163348 | -17 | 45 | 0.0 | 0.0 | 0.00 | 0.00 | 0.00 | 1017.0 | |
| 20260502162545 | -17 | 45 | 0.0 | 0.0 | 0.00 | 0.00 | 0.00 | 1016.7 | |
| 20260502161744 | -17 | 45 | 0.0 | 0.0 | 0.00 | 0.00 | 0.00 | 1016.7 | |
| 20260502160940 | -17 | 45 | 0.0 | 0.0 | 0.00 | 0.00 | 0.00 | 1016.4 | |
| 20260502160137 | -17 | 45 | 0.0 | 0.0 | 0.00 | 0.00 | 0.00 | 1016.3 | |
| 20260502152100 | -17 | 45 | 0.0 | 0.0 | 0.00 | 0.00 | 0.00 | 1016.4 | |
| 20260502151251 | -17 | 45 | 0.0 | 0.0 | 0.00 | 0.00 | 0.00 | 1016.5 | |
| 20260502150440 | -17 | 45 | 0.0 | 0.0 | 0.00 | 0.00 | 0.00 | 1016.9 | |
| 20260502130314 | -17 | 180 | 0.0 | 0.0 | 0.00 | 0.00 | 0.00 | 1017.8 | |
| 20260502123105 | -17 | 135 | 0.0 | 0.0 | 0.00 | 0.00 | 0.00 | 1018.1 | |
| 20260502122301 | -17 | 90 | 0.0 | 0.0 | 0.00 | 0.00 | 0.00 | 1018.9 | |
| 20260502121457 | -17 | 45 | 0.0 | 0.0 | 0.00 | 0.00 | 0.00 | 1019.1 | |
| 20260502120653 | -17 | 90 | 0.0 | 0.0 | 0.00 | 0.00 | 0.00 | 1019.1 | |
| 20260502115852 | -17 | 90 | 0.0 | 0.0 | 0.00 | 0.00 | 0.00 | 1018.7 | |
| 20260502115047 | -17 | 45 | 0.0 | 0.0 | 0.00 | 0.00 | 0.00 | 1018.9 | |
| 20260502114243 | -17 | 45 | 0.0 | 0.0 | 0.00 | 0.00 | 0.00 | 1019.2 | |
| 20260502113442 | -17 | 45 | 0.0 | 0.0 | 0.00 | 0.00 | 0.00 | 1019.0 | |
| 20260502112639 | -17 | 45 | 0.0 | 0.0 | 0.00 | 0.00 | 0.00 | 1019.5 | |
| 20260502111832 | -17 | 180 | 0.0 | 0.0 | 0.00 | 0.00 | 0.00 | 1019.3 | |
| 20260502111026 | -17 | 45 | 0.0 | 0.0 | 0.00 | 0.00 | 0.00 | 1019.7 | |
| 20260502110218 | -17 | 45 | 0.0 | 0.0 | 0.00 | 0.00 | 0.00 | 1020.0 | |
| 20260502105416 | -17 | 45 | 0.0 | 0.0 | 0.00 | 0.00 | 0.00 | 1020.2 | |
| 20260502104610 | -17 | 45 | 0.0 | 0.0 | 0.00 | 0.00 | 0.00 | 1020.3 | |
| 20260502103805 | -17 | 135 | 0.0 | 0.0 | 0.00 | 0.00 | 0.00 | 1020.6 | |
| 20260502103002 | -17 | 45 | 0.0 | 0.0 | 0.00 | 0.00 | 0.00 | 1020.7 | |
| 20260502102158 | -17 | 135 | 0.0 | 0.0 | 0.00 | 0.00 | 0.00 | 1020.7 | |
| 20260502101354 | -17 | 45 | 0.0 | 0.0 | 0.00 | 0.00 | 0.00 | 1021.0 | |
| 20260502100554 | -17 | 45 | 0.0 | 0.0 | 0.00 | 0.00 | 0.00 | 1021.2 | |
| 20260502090908 | -17 | 113 | 0.0 | 0.0 | 0.00 | 0.00 | 0.00 | 1022.1 | |
| 20260502071527 | -17 | 135 | 0.0 | 0.0 | 0.00 | 0.00 | 0.00 | 1023.8 | |
| 20260502070727 | -17 | 45 | 0.0 | 0.0 | 0.00 | 0.00 | 0.00 | 1023.9 | |
| 20260502065924 | -17 | 135 | 0.0 | 0.0 | 0.00 | 0.00 | 0.00 | 1023.9 | |
| 20260502065123 | -17 | 135 | 0.0 | 1.6 | 0.00 | 0.00 | 0.00 | 1024.0 | |
| 20260502064321 | -17 | 135 | 0.0 | 1.6 | 0.00 | 0.00 | 0.00 | 1024.0 | |
| 20260502063520 | -17 | 135 | 0.0 | 0.0 | 0.00 | 0.00 | 0.00 | 1024.1 | |
| 20260502062718 | -17 | 180 | 0.0 | 0.0 | 0.00 | 0.00 | 0.00 | 1024.4 | |
| 20260502061913 | -17 | 180 | 0.0 | 0.0 | 0.00 | 0.00 | 0.00 | 1024.8 | |
| 20260502061112 | -17 | 135 | 0.0 | 0.0 | 0.00 | 0.00 | 0.00 | 1025.0 | |
| 20260502060311 | -17 | 135 | 0.0 | 0.0 | 0.00 | 0.00 | 0.00 | 1025.3 | |
| 20260502055510 | -17 | 135 | 0.0 | 0.0 | 0.00 | 0.00 | 0.00 | 1025.7 | |
| 20260502054706 | -17 | 90 | 0.0 | 0.0 | 0.00 | 0.00 | 0.00 | 1025.8 | |
| 20260502053906 | -17 | 135 | 0.0 | 0.0 | 0.00 | 0.00 | 0.00 | 1026.0 | |
| 20260502053106 | -17 | 135 | 0.0 | 1.6 | 0.00 | 0.00 | 0.00 | 1026.2 | |
| 20260502052306 | -17 | 90 | 0.0 | 0.0 | 0.00 | 0.00 | 0.00 | 1026.5 | |
| 20260502051504 | -17 | 135 | 0.0 | 0.0 | 0.00 | 0.00 | 0.00 | 1026.8 | |
| 20260502050701 | -17 | 45 | 0.0 | 0.0 | 0.00 | 0.00 | 0.00 | 1026.9 | |
| 20260502045859 | -17 | 45 | 0.0 | 0.0 | 0.00 | 0.00 | 0.00 | 1027.2 | |
| 20260502045054 | -17 | 45 | 0.0 | 0.0 | 0.00 | 0.00 | 0.00 | 1027.4 | |
| 20260502044250 | -17 | 45 | 0.0 | 0.0 | 0.00 | 0.00 | 0.00 | 1027.6 | |
| 20260502043450 | -17 | 45 | 0.0 | 0.0 | 0.00 | 0.00 | 0.00 | 1027.6 | |
| 20260502042647 | -17 | 45 | 0.0 | 0.0 | 0.00 | 0.00 | 0.00 | 1027.8 | |
| 20260502041846 | -17 | 45 | 0.0 | 0.0 | 0.00 | 0.00 | 0.00 | 1028.0 | |
| 20260502041047 | -17 | 45 | 0.0 | 0.0 | 0.00 | 0.00 | 0.00 | 1028.0 | |
| 20260502040246 | -17 | 45 | 0.0 | 0.0 | 0.00 | 0.00 | 0.00 | 1027.9 | |
| 20260502035440 | -17 | 45 | 0.0 | 0.0 | 0.00 | 0.00 | 0.00 | 1027.9 | |
| 20260502034635 | -17 | 45 | 0.0 | 0.0 | 0.00 | 0.00 | 0.00 | 1027.9 | |
| 20260502033834 | -17 | 45 | 0.0 | 0.0 | 0.00 | 0.00 | 0.00 | 1028.0 | |
| 20260502033034 | -17 | 45 | 0.0 | 0.0 | 0.00 | 0.00 | 0.00 | 1028.0 | |
| 20260502032234 | -17 | 45 | 0.0 | 0.0 | 0.00 | 0.00 | 0.00 | 1028.0 | |
| 20260502031434 | -17 | 45 | 0.0 | 0.0 | 0.00 | 0.00 | 0.00 | 1028.0 | |
| 20260502030629 | -17 | 45 | 0.0 | 0.0 | 0.00 | 0.00 | 0.00 | 1028.0 | |
| 20260502025830 | -17 | 45 | 0.0 | 0.0 | 0.00 | 0.00 | 0.00 | 1028.0 | |
| 20260502025027 | -17 | 45 | 0.0 | 0.0 | 0.00 | 0.00 | 0.00 | 1028.1 | |
| 20260502024221 | -17 | 45 | 0.0 | 0.0 | 0.00 | 0.00 | 0.00 | 1028.1 | |
| 20260502023414 | -17 | 45 | 0.0 | 0.0 | 0.00 | 0.00 | 0.00 | 1028.0 | |
| 20260502022610 | -17 | 45 | 0.0 | 0.0 | 0.00 | 0.00 | 0.00 | 1028.0 | |
| 20260502021806 | -17 | 45 | 0.0 | 0.0 | 0.00 | 0.00 | 0.00 | 1028.0 | |
| 20260502021000 | -17 | 45 | 0.0 | 0.0 | 0.00 | 0.00 | 0.00 | 1028.0 | |
| 20260502020155 | -17 | 45 | 0.0 | 0.0 | 0.00 | 0.00 | 0.00 | 1028.0 | |
| 20260502015352 | -17 | 45 | 0.0 | 0.0 | 0.00 | 0.00 | 0.00 | 1028.1 | |
| 20260502014545 | -17 | 45 | 0.0 | 0.0 | 0.00 | 0.00 | 0.00 | 1028.1 | |
| 20260502013741 | -17 | 45 | 0.0 | 0.0 | 0.00 | 0.00 | 0.00 | 1028.1 | |
| 20260502012934 | -17 | 45 | 0.0 | 0.0 | 0.00 | 0.00 | 0.00 | 1028.1 | |
| 20260502012131 | -17 | 45 | 0.0 | 0.0 | 0.00 | 0.00 | 0.00 | 1028.1 | |
| 20260502011327 | -17 | 45 | 0.0 | 0.0 | 0.00 | 0.00 | 0.00 | 1028.1 | |
| 20260502010526 | -17 | 45 | 0.0 | 0.0 | 0.00 | 0.00 | 0.00 | 1028.0 | |
| 20260502005725 | -17 | 45 | 0.0 | 0.0 | 0.00 | 0.00 | 0.00 | 1028.0 | |
| 20260502004923 | -17 | 45 | 0.0 | 0.0 | 0.00 | 0.00 | 0.00 | 1028.0 | |
| 20260502004116 | -17 | 45 | 0.0 | 0.0 | 0.00 | 0.00 | 0.00 | 1028.0 | |
| 20260502003313 | -17 | 45 | 0.0 | 0.0 | 0.00 | 0.00 | 0.00 | 1028.1 | |
| 20260502002512 | -17 | 45 | 0.0 | 0.0 | 0.00 | 0.00 | 0.00 | 1028.1 | |
| 20260502001708 | -17 | 45 | 0.0 | 0.0 | 0.00 | 0.00 | 0.00 | 1028.0 | |
| 20260502000903 | -17 | 45 | 0.0 | 0.0 | 0.00 | 0.00 | 0.00 | 1028.0 | |
| 20260502000100 | -17 | 45 | 0.0 | 0.0 | 0.00 | 0.00 | 0.00 | 1028.0 | |
| 20260501235254 | -17 | 45 | 0.0 | 0.0 | 0.00 | 0.00 | 0.00 | 1027.9 | |
| 20260501234448 | -17 | 45 | 0.0 | 0.0 | 0.00 | 0.00 | 0.00 | 1028.0 | |
| 20260501233644 | -17 | 45 | 0.0 | 0.0 | 0.00 | 0.00 | 0.00 | 1028.0 | |
| 20260501232842 | -17 | 135 | 0.0 | 0.0 | 0.00 | 0.00 | 0.00 | 1028.0 | |
| 20260501232036 | -17 | 45 | 0.0 | 0.0 | 0.00 | 0.00 | 0.00 | 1028.0 | |
| 20260501231232 | -17 | 45 | 0.0 | 0.0 | 0.00 | 0.00 | 0.00 | 1028.0 | |
| 20260501230431 | -17 | 45 | 0.0 | 0.0 | 0.00 | 0.00 | 0.00 | 1028.1 | |
| 20260501225628 | -17 | 45 | 0.0 | 0.0 | 0.00 | 0.00 | 0.00 | 1028.1 | |
| 20260501224824 | -17 | 45 | 0.0 | 0.0 | 0.00 | 0.00 | 0.00 | 1028.0 | |
| 20260501224020 | -17 | 45 | 0.0 | 0.0 | 0.00 | 0.00 | 0.00 | 1028.1 | |
| 20260501223220 | -17 | 45 | 0.0 | 0.0 | 0.00 | 0.00 | 0.00 | 1028.0 | |
| 20260501222417 | -17 | 45 | 0.0 | 0.0 | 0.00 | 0.00 | 0.00 | 1028.0 | |
| 20260501221616 | -17 | 45 | 0.0 | 0.0 | 0.00 | 0.00 | 0.00 | 1028.0 | |
| 20260501220809 | -17 | 45 | 0.0 | 0.0 | 0.00 | 0.00 | 0.00 | 1028.0 | |
| 20260501220005 | -17 | 45 | 0.0 | 0.0 | 0.00 | 0.00 | 0.00 | 1027.9 | |
| 20260501215158 | -17 | 45 | 0.0 | 0.0 | 0.00 | 0.00 | 0.00 | 1027.8 |